DateTimeUTC,F1_A11,F1_S11,BsB_S11,BsG_S11,BsR_S11,BbsB_S11,BbsG_S11,BbsR_S11,BaB_A11,BaG_A11,BaR_A11,Tu_S11,T_S11,Uu_S11,U_S11,P_S11,T1_A11
2021-02-25T19:00:00Z,00000200,21000000,,,,,,,-000.55,-000.39,-000.36,16.9,24.6,,00.0,0640.4,31.0
2021-02-25T19:01:00Z,00000200,21000000,,,,,,,0000.00,-000.08,-000.36,16.9,24.6,,00.0,0640.4,31.0
2021-02-25T19:02:00Z,00000200,21000000,,,,,,,-000.17,-000.18,0000.14,17.0,24.6,,00.0,0640.4,31.0
2021-02-25T19:03:00Z,00000200,61000000,,,,,,,0000.20,0000.02,0000.06,17.0,24.7,,00.0,0640.4,31.0
2021-02-25T19:04:00Z,00000200,41000000,0000.37,0000.11,0000.03,-000.50,-000.08,-000.00,-000.21,0000.19,0000.40,17.5,24.6,,00.0,0641.3,31.0
2021-02-25T19:05:00Z,00000200,01000000,-000.21,-000.02,0000.24,-000.14,-000.15,0000.03,0000.47,0000.20,-000.28,17.6,24.6,,00.0,0641.4,31.1
2021-02-25T19:06:00Z,00000200,01000000,0000.26,-000.15,0000.24,0000.07,0000.03,-000.02,-000.22,-000.02,0000.29,17.6,24.6,,00.0,0641.4,31.1
2021-02-25T19:07:00Z,00000200,01000000,0000.73,-000.02,0000.19,-000.16,-000.06,0000.04,-000.29,-000.15,0000.02,17.6,24.6,,00.0,0641.4,31.1
2021-02-25T19:08:00Z,00000200,01000000,-000.05,0000.22,0000.11,-000.66,-000.07,0000.16,0000.27,0000.10,-000.08,17.5,24.6,,00.0,0641.4,31.0
2021-02-25T19:09:00Z,00000200,01000000,0000.04,0000.14,0000.16,0000.23,-000.14,-000.10,-000.18,-000.04,-000.28,17.5,24.5,,00.0,0641.4,31.0
2021-02-25T19:10:00Z,00000200,01000000,0000.36,0000.34,0000.18,0000.06,0000.16,0000.08,0000.06,-000.26,-000.14,17.5,24.5,,00.0,0641.4,31.0
2021-02-25T19:11:00Z,00000200,01000000,0000.30,0000.09,0000.15,-000.26,0000.25,0000.33,-000.12,0000.10,0000.10,17.4,24.5,,00.0,0641.4,31.0
2021-02-25T19:12:00Z,00000200,01000000,0000.46,0000.06,0000.05,-000.37,0000.03,0000.07,0000.32,-000.01,0000.26,17.4,24.5,,00.0,0641.4,31.0
2021-02-25T19:13:00Z,00000200,01000000,0000.47,0000.08,-000.16,0000.02,0000.41,0000.05,-000.14,0000.35,-000.14,17.4,24.5,,00.0,0641.4,31.0
2021-02-25T19:14:00Z,00000200,01000000,0000.03,0000.24,0000.12,-000.57,0000.16,-000.09,-000.06,-000.11,0000.14,17.3,24.4,,00.0,0641.4,31.0
2021-02-25T19:15:00Z,00000200,01000000,0000.31,-000.14,0000.33,-000.04,0000.07,0000.22,0000.10,-000.21,0000.08,17.3,24.4,,00.0,0641.4,31.0
2021-02-25T19:16:00Z,00000200,01000000,-000.22,-000.02,0000.07,-000.82,0000.22,0000.13,0000.11,-000.09,0000.01,17.3,24.4,,00.0,0641.4,31.0
2021-02-25T19:17:00Z,00000200,01000000,0000.01,0000.04,0000.28,-000.14,0000.06,0000.02,-000.13,0000.11,-000.17,17.2,24.4,,00.0,0641.4,31.0
2021-02-25T19:18:00Z,00000200,01000000,-000.07,0000.05,0000.20,-000.06,-000.09,-000.06,0000.03,0000.12,-000.04,17.2,24.4,,00.0,0641.4,31.0
2021-02-25T19:19:00Z,00000200,01000000,-000.33,0000.34,-000.26,0000.00,0000.21,0000.11,0000.22,0000.05,0000.13,17.2,24.4,,00.0,0641.4,31.0
2021-02-25T19:20:00Z,00000200,01000000,0001.04,-000.04,0000.16,0000.23,0000.18,0000.13,-000.02,0000.33,0000.17,17.2,24.3,,00.0,0641.4,31.0
2021-02-25T19:21:00Z,00000200,01000000,0000.28,0000.04,-000.07,-000.41,0000.06,0000.03,0000.03,-000.41,-000.04,17.1,24.3,,00.0,0641.4,31.0
2021-02-25T19:22:00Z,00000200,01000000,0000.36,-000.00,0000.03,0000.13,0000.17,-000.05,0000.06,-000.11,-000.28,17.1,24.3,,00.0,0641.4,31.0
2021-02-25T19:23:00Z,00000200,01000000,0000.34,0000.03,-000.06,0000.22,0000.24,0000.27,0000.06,0000.10,0000.22,17.1,24.3,,00.0,0641.4,31.0
2021-02-25T19:24:00Z,00000200,01000000,-000.06,0000.20,0000.12,0000.01,0000.33,0000.14,-000.14,-000.14,0000.22,17.1,24.3,,00.0,0641.4,31.0
2021-02-25T19:25:00Z,00000200,01000000,0000.55,0000.10,0000.08,0000.09,0000.34,-000.03,0000.04,0000.24,-000.25,17.0,24.3,,00.0,0641.4,31.0
2021-02-25T19:26:00Z,00000200,01000000,-000.21,0000.08,-000.16,-000.48,0000.07,-000.07,0000.25,0000.15,-000.20,17.0,24.2,,00.0,0641.4,31.0
2021-02-25T19:27:00Z,00000200,01000000,-000.41,-000.13,-000.10,-000.14,-000.01,0000.12,-000.50,-000.17,0000.35,17.0,24.2,,00.0,0641.4,31.0
2021-02-25T19:28:00Z,00000200,01000000,0000.38,0000.12,-000.12,-000.16,0000.07,0000.13,0000.14,0000.13,-000.20,17.0,24.2,,00.0,0641.4,31.0
2021-02-25T19:29:00Z,00000200,01000000,0000.61,0000.34,0000.08,-000.34,0000.12,0000.23,-000.01,-000.12,0000.04,17.0,24.2,,00.0,0641.4,31.0
2021-02-25T19:30:00Z,00000200,01000000,0000.40,0000.11,0000.16,-000.64,0000.24,-000.15,0000.10,0000.11,-000.08,17.0,24.2,,00.0,0641.4,31.0
2021-02-25T19:31:00Z,00000200,01000000,0000.35,0000.13,0000.14,0000.22,0000.45,0000.11,0000.09,-000.00,0000.47,17.1,24.2,,00.0,0641.4,31.0
2021-02-25T19:32:00Z,00000200,01000000,-000.20,-000.01,0000.23,0000.24,0000.03,-000.10,0000.11,-000.15,-000.15,17.2,24.2,,00.0,0641.3,31.0
2021-02-25T19:33:00Z,00000200,01000000,-000.08,0000.21,0000.07,-000.01,0000.16,0000.06,-000.11,-000.07,-000.17,17.3,24.3,,00.0,0641.3,31.0
2021-02-25T19:34:00Z,00000200,01000000,-000.50,-000.19,0000.20,0000.23,0000.08,0000.10,0000.20,0000.12,0000.19,17.4,24.3,,00.0,0641.3,31.0
2021-02-25T19:35:00Z,00000200,01000000,0000.28,0000.05,-000.12,-000.16,0000.20,-000.06,-000.02,0000.21,0000.36,17.5,24.4,,00.0,0641.3,31.0
2021-02-25T19:36:00Z,00000200,01000000,0000.33,0000.18,-000.15,0000.02,0000.12,0000.17,0000.06,0000.15,-000.22,17.6,24.4,,00.0,0641.3,31.1
2021-02-25T19:37:00Z,00000200,01000000,0000.38,0000.10,0000.06,-000.13,0000.03,-000.12,0000.08,-000.05,-000.03,17.6,24.5,,00.0,0641.3,31.1
2021-02-25T19:38:00Z,00000200,01000000,-000.10,-000.04,-000.09,-000.40,-000.00,-000.32,0000.05,0000.22,0000.20,17.7,24.5,,00.0,0641.4,31.1
2021-02-25T19:39:00Z,00000200,01000000,0000.30,0000.08,-000.04,-000.18,0000.14,0000.10,0000.14,-000.10,0000.17,17.8,24.6,,00.0,0641.3,31.1
2021-02-25T19:40:00Z,00000200,01000000,0000.50,0000.01,0000.29,-000.52,0000.08,0000.18,-000.08,0000.45,0000.22,17.8,24.6,,00.0,0641.4,31.1
2021-02-25T19:41:00Z,00000200,01000000,0000.45,0000.16,0000.20,-000.02,-000.11,0000.12,0000.09,-000.16,-000.27,17.7,24.6,,00.0,0641.4,31.1
2021-02-25T19:42:00Z,00000200,01000000,0000.15,-000.06,-000.10,-000.10,-000.17,0000.21,0000.00,0000.04,0000.20,17.7,24.6,,00.0,0641.4,31.0
2021-02-25T19:43:00Z,00000200,01000000,0000.39,-000.20,0000.05,-000.36,0000.17,0000.04,-000.29,-000.35,-000.63,17.7,24.5,,00.0,0641.4,31.0
2021-02-25T19:44:00Z,00000200,01000000,-000.26,0000.35,0000.23,0000.23,0000.24,0000.07,-000.08,-000.10,0000.04,17.6,24.5,,00.0,0641.4,31.0
2021-02-25T19:45:00Z,00000200,01000000,-000.06,-000.20,0000.10,-000.22,0000.09,-000.16,0000.36,-000.09,0000.38,17.6,24.5,,00.0,0641.4,31.0
2021-02-25T19:46:00Z,00000200,01000000,0000.21,0000.23,0000.29,-000.29,0000.28,-000.06,-000.31,-000.08,0000.04,17.5,24.5,,00.0,0641.4,31.0
2021-02-25T19:47:00Z,00000200,01000000,0000.04,-000.15,0000.16,-000.43,0000.21,0000.02,0000.09,0000.33,-000.44,17.5,24.5,,00.0,0641.4,31.0
2021-02-25T19:48:00Z,00000200,01000000,0000.12,0000.10,-000.01,0000.46,0000.19,0000.17,0000.27,0000.28,0000.27,17.4,24.5,,00.0,0641.4,31.0
2021-02-25T19:49:00Z,00000200,01000000,-000.09,-000.00,0000.13,-000.10,0000.17,0000.20,0000.07,0000.17,0000.07,17.4,24.5,,00.0,0641.4,31.0
2021-02-25T19:50:00Z,00000200,01000000,-000.04,0000.14,0000.19,0000.10,0000.03,0000.03,-000.13,-000.33,-000.05,17.4,24.4,,00.0,0641.4,31.0
2021-02-25T19:51:00Z,00000200,01000000,-000.27,0000.30,0000.10,-000.13,0000.29,0000.27,-000.11,-000.14,-000.24,17.3,24.4,,00.0,0641.4,31.0
2021-02-25T19:52:00Z,00000200,01000000,0000.05,0000.06,0000.11,-000.06,-000.02,0000.00,0000.05,0000.00,0000.26,17.3,24.4,,00.0,0641.4,31.0
2021-02-25T19:53:00Z,00000200,01000000,0000.72,-000.06,0000.25,-000.58,0000.04,0000.05,0000.00,0000.18,0000.14,17.3,24.4,,00.0,0641.4,31.0
2021-02-25T19:54:00Z,00000200,01000000,0000.49,0000.00,0000.03,-000.31,0000.11,-000.02,0000.08,-000.01,0000.02,17.3,24.4,,00.0,0641.4,31.0
2021-02-25T19:55:00Z,00000200,01000000,0000.28,0000.13,0000.06,-000.08,0000.27,-000.01,0000.09,-000.14,-000.07,17.2,24.4,,00.0,0641.4,31.0
2021-02-25T19:56:00Z,00000200,01000000,0000.39,0000.21,0000.28,-000.37,0000.21,0000.11,-000.05,0000.19,-000.06,17.2,24.3,,00.0,0641.4,31.0
2021-02-25T19:57:00Z,00000200,41000000,,,,,,,0000.95,0000.75,0000.44,17.2,24.3,,00.0,0641.3,31.0
2021-02-25T19:58:00Z,00000200,61000000,,,,,,,-000.70,-000.65,-000.26,16.8,24.5,,00.0,0640.5,31.0
2021-02-25T19:59:00Z,00000200,21000000,,,,,,,-000.09,-000.05,-000.11,16.8,24.6,,00.0,0640.5,31.0
